,,Stat5,,Stat1,,Stat2,,Stat3,,Stat4,,Wind1,,Wind1,
time,status,PA1M_AVG,status,PR1M_SUM,status,RH1M_AVG,status,SR1M_AVG,status,TA1M_AVG,status,W1dAve1m,status,W1sAve1m,
2003-01-02, 00:00:00,VALID,919.739,VALID,0,VALID,84.7232,VALID,-0.0679233,VALID,18.6915,VALID,118,VALID,0.959459,
2003-01-02, 00:01:00,VALID,919.741,VALID,0,VALID,84.7804,VALID,-0.101885,VALID,18.7236,VALID,112,VALID,0.970269,
2003-01-02, 00:02:00,VALID,919.743,VALID,0,VALID,84.9203,VALID,-0.0679233,VALID,18.737,VALID,125,VALID,1.05658,
2003-01-02, 00:03:00,VALID,919.731,VALID,0,VALID,85.0958,VALID,-0.101885,VALID,18.7203,VALID,131,VALID,0.810389,
2003-01-02, 00:04:00,VALID,919.735,VALID,0,VALID,85.139,VALID,-0.0679233,VALID,18.7012,VALID,128,VALID,1.34076,
2003-01-02, 00:05:00,VALID,919.728,VALID,0,VALID,85.1288,VALID,-0.0849042,VALID,18.6977,VALID,124,VALID,1.10724,
2003-01-02, 00:06:00,VALID,919.706,VALID,0,VALID,85.2306,VALID,-0.0849042,VALID,18.7243,VALID,128,VALID,0.852196,
2003-01-02, 00:07:00,VALID,919.702,VALID,0,VALID,85.3971,VALID,-0.0679233,VALID,18.7102,VALID,124,VALID,1.08755,
2003-01-02, 00:08:00,VALID,919.683,VALID,0,VALID,85.518,VALID,-0.101885,VALID,18.7,VALID,126,VALID,0.760653,
2003-01-02, 00:09:00,VALID,919.68,VALID,0,VALID,85.4887,VALID,-0.0169808,VALID,18.6873,VALID,120,VALID,1.08377,
2003-01-02, 00:10:00,VALID,919.683,VALID,0,VALID,85.4149,VALID,-0.0169808,VALID,18.7097,VALID,127,VALID,0.958036,
2003-01-02, 00:11:00,VALID,919.692,VALID,0,VALID,85.4874,VALID,-0.0169808,VALID,18.6995,VALID,151,VALID,0.461411,
2003-01-02, 00:12:00,VALID,919.693,VALID,0,VALID,85.9681,VALID,-0.0849042,VALID,18.7003,VALID,145,VALID,1.09966,
2003-01-02, 00:13:00,VALID,919.701,VALID,0,VALID,86.4093,VALID,-0.0509425,VALID,18.6583,VALID,156,VALID,0.858456,
2003-01-02, 00:14:00,VALID,919.711,VALID,0,VALID,86.7463,VALID,-0.0509425,VALID,18.6163,VALID,141,VALID,0.896544,
2003-01-02, 00:15:00,VALID,919.705,VALID,0,VALID,87.0973,VALID,-0.0339617,VALID,18.5646,VALID,124,VALID,0.617405,
2003-01-02, 00:16:00,VALID,919.703,VALID,0,VALID,87.6797,VALID,-0.0679233,VALID,18.5034,VALID,142,VALID,0.707589,
2003-01-02, 00:17:00,VALID,919.701,VALID,0,VALID,88.3117,VALID,-0.0339617,VALID,18.4224,VALID,152,VALID,0.725379,
2003-01-02, 00:18:00,VALID,919.702,VALID,0,VALID,88.9551,VALID,-0.0509425,VALID,18.3382,VALID,147,VALID,0.730363,
2003-01-02, 00:19:00,VALID,919.694,VALID,0,VALID,89.423,VALID,-0.0679233,VALID,18.2579,VALID,126,VALID,0.682445,
2003-01-02, 00:20:00,VALID,919.684,VALID,0,VALID,89.8389,VALID,-0.0509425,VALID,18.1933,VALID,128,VALID,0.562027,
2003-01-02, 00:21:00,VALID,919.688,VALID,0,VALID,90.289,VALID,-0.0679233,VALID,18.1222,VALID,143,VALID,0.983507,
2003-01-02, 00:22:00,VALID,919.695,VALID,0,VALID,90.6667,VALID,-0.0169808,VALID,18.0472,VALID,132,VALID,0.925,
2003-01-02, 00:23:00,VALID,919.69,VALID,0,VALID,90.8002,VALID,-0.0679233,VALID,18.0059,VALID,122,VALID,0.902462,
2003-01-02, 00:24:00,VALID,919.674,VALID,0,VALID,90.5471,VALID,-0.0509425,VALID,17.957,VALID,125,VALID,0.859375,
2003-01-02, 00:25:00,VALID,919.674,VALID,0,VALID,90.4111,VALID,-0.0339617,VALID,17.9252,VALID,130,VALID,0.914982,
2003-01-02, 00:26:00,VALID,919.672,VALID,0,VALID,90.275,VALID,-0.0849042,VALID,17.9019,VALID,144,VALID,1.02983,
2003-01-02, 00:27:00,VALID,919.677,VALID,0,VALID,90.1809,VALID,-0.0169808,VALID,17.9316,VALID,123,VALID,0.730252,
2003-01-02, 00:28:00,VALID,919.675,VALID,0,VALID,90.0805,VALID,-0.0509425,VALID,17.9577,VALID,121,VALID,1.26875,
2003-01-02, 00:29:00,VALID,919.68,VALID,0,VALID,90.0499,VALID,-0.0339617,VALID,17.9958,VALID,128,VALID,0.852036,
2003-01-02, 00:30:00,VALID,919.671,VALID,0,VALID,90.0143,VALID,-0.0339617,VALID,18.0089,VALID,125,VALID,1.23796,
2003-01-02, 00:31:00,VALID,919.671,VALID,0,VALID,90.0449,VALID,-0.0679233,VALID,18.032,VALID,129,VALID,1.06893,
2003-01-02, 00:32:00,VALID,919.673,VALID,0,VALID,90.0474,VALID,-0.0339617,VALID,18.035,VALID,126,VALID,0.972064,
2003-01-02, 00:33:00,VALID,919.682,VALID,0,VALID,90.1618,VALID,-0.0339617,VALID,18.0348,VALID,120,VALID,0.805122,
2003-01-02, 00:34:00,VALID,919.691,VALID,0,VALID,90.1796,VALID,-0.0339617,VALID,18.0417,VALID,120,VALID,1.14129,
2003-01-02, 00:35:00,VALID,919.7,VALID,0,VALID,89.7308,VALID,-0.0339617,VALID,18.0382,VALID,112,VALID,1.03717,
2003-01-02, 00:36:00,VALID,919.695,VALID,0,VALID,89.1649,VALID,-0.0339617,VALID,18.0673,VALID,113,VALID,1.17863,
2003-01-02, 00:37:00,VALID,919.697,VALID,0,VALID,88.5774,VALID,-0.0509425,VALID,18.1098,VALID,107,VALID,1.02849,
2003-01-02, 00:38:00,VALID,919.698,VALID,0,VALID,88.1642,VALID,-0.0679233,VALID,18.1513,VALID,113,VALID,1.2242,
2003-01-02, 00:39:00,VALID,919.699,VALID,0,VALID,87.77,VALID,-0.0679233,VALID,18.1998,VALID,120,VALID,1.20182,
2003-01-02, 00:40:00,VALID,919.703,VALID,0,VALID,87.7611,VALID,-0.0849042,VALID,18.2258,VALID,119,VALID,1.38929,
2003-01-02, 00:41:00,VALID,919.701,VALID,0,VALID,87.789,VALID,-0.0169808,VALID,18.2413,VALID,123,VALID,1.04427,
2003-01-02, 00:42:00,VALID,919.695,VALID,0,VALID,87.9912,VALID,-0.0509425,VALID,18.2644,VALID,135,VALID,1.44616,
2003-01-02, 00:43:00,VALID,919.675,VALID,0,VALID,88.0713,VALID,-0.0679233,VALID,18.2577,VALID,119,VALID,1.26264,
2003-01-02, 00:44:00,VALID,919.663,VALID,0,VALID,88.3536,VALID,-0.0169808,VALID,18.2318,VALID,126,VALID,1.61813,
2003-01-02, 00:45:00,VALID,919.659,VALID,0,VALID,88.6169,VALID,-0.0509425,VALID,18.2127,VALID,103,VALID,1.27409,
2003-01-02, 00:46:00,VALID,919.651,VALID,0,VALID,88.6677,VALID,-0.0509425,VALID,18.1935,VALID,116,VALID,1.27254,
2003-01-02, 00:47:00,VALID,919.661,VALID,0,VALID,88.7059,VALID,-0.0339617,VALID,18.1806,VALID,120,VALID,1.40104,
2003-01-02, 00:48:00,VALID,919.658,VALID,0,VALID,88.7466,VALID,-0.0339617,VALID,18.1801,VALID,119,VALID,1.34101,
2003-01-02, 00:49:00,VALID,919.654,VALID,0,VALID,88.9335,VALID,-0.0509425,VALID,18.1538,VALID,115,VALID,1.25414,
2003-01-02, 00:50:00,VALID,919.658,VALID,0,VALID,89.1293,VALID,-0.0509425,VALID,18.1319,VALID,116,VALID,1.19105,
2003-01-02, 00:51:00,VALID,919.652,VALID,0,VALID,89.2094,VALID,-0.0339617,VALID,18.1001,VALID,122,VALID,1.36198,
2003-01-02, 00:52:00,VALID,919.224,VALID,0,VALID,89.2056,VALID,0,VALID,18.077,VALID,117,VALID,1.13638,
2003-01-02, 00:53:00,VALID,919.633,VALID,0,VALID,89.0187,VALID,0,VALID,18.074,VALID,123,VALID,1.12855,
2003-01-02, 00:54:00,VALID,919.608,VALID,0,VALID,88.9398,VALID,-0.0509425,VALID,18.0765,VALID,109,VALID,1.22952,
2003-01-02, 00:55:00,VALID,919.586,VALID,0,VALID,88.7872,VALID,-0.0169808,VALID,18.0666,VALID,119,VALID,1.16131,
2003-01-02, 00:56:00,VALID,919.566,VALID,0,VALID,88.6308,VALID,-0.0339617,VALID,18.0807,VALID,118,VALID,1.55682,
2003-01-02, 00:57:00,VALID,919.532,VALID,0,VALID,88.29,VALID,-0.0339617,VALID,18.0733,VALID,121,VALID,1.37912,
2003-01-02, 00:58:00,VALID,919.514,VALID,0,VALID,88.1654,VALID,-0.0339617,VALID,18.1031,VALID,124,VALID,1.27656,
2003-01-02, 00:59:00,VALID,919.494,VALID,0,VALID,87.7661,VALID,-0.0679233,VALID,18.1098,VALID,140,VALID,1.63707,
2003-01-02, 01:00:00,VALID,919.492,VALID,0,VALID,87.639,VALID,-0.0679233,VALID,18.1188,VALID,118,VALID,1.14844,
2003-01-02, 01:01:00,VALID,919.501,VALID,0,VALID,87.5144,VALID,-0.0849042,VALID,18.1255,VALID,125,VALID,1.32307,
2003-01-02, 01:02:00,VALID,919.494,VALID,0,VALID,87.5487,VALID,-0.0169808,VALID,18.1128,VALID,112,VALID,1.11648,
2003-01-02, 01:03:00,VALID,919.492,VALID,0,VALID,87.2944,VALID,-0.0679233,VALID,18.0802,VALID,120,VALID,1.50608,
2003-01-02, 01:04:00,VALID,919.474,VALID,0,VALID,87.1736,VALID,-0.0509425,VALID,18.0835,VALID,106,VALID,1.19687,
2003-01-02, 01:05:00,VALID,919.466,VALID,0,VALID,87.0388,VALID,-0.0679233,VALID,18.1001,VALID,109,VALID,1.20099,
2003-01-02, 01:06:00,VALID,919.466,VALID,0,VALID,86.7718,VALID,-0.0169808,VALID,18.0998,VALID,112,VALID,1.32538,
2003-01-02, 01:07:00,VALID,919.472,VALID,0,VALID,86.2758,VALID,-0.0169808,VALID,18.1225,VALID,110,VALID,1.14292,
2003-01-02, 01:08:00,VALID,919.453,VALID,0,VALID,86.066,VALID,0,VALID,18.1446,VALID,114,VALID,1.18774,
2003-01-02, 01:09:00,VALID,919.439,VALID,0,VALID,85.7379,VALID,0.0169808,VALID,18.1771,VALID,114,VALID,1.26823,
2003-01-02, 01:10:00,VALID,919.449,VALID,0,VALID,85.6311,VALID,0,VALID,18.1998,VALID,122,VALID,0.983036,
2003-01-02, 01:11:00,VALID,919.445,VALID,0,VALID,85.2852,VALID,0,VALID,18.2097,VALID,117,VALID,0.953362,
2003-01-02, 01:12:00,VALID,919.448,VALID,0,VALID,85.111,VALID,-0.0169808,VALID,18.236,VALID,123,VALID,1.02956,
2003-01-02, 01:13:00,VALID,919.461,VALID,0,VALID,85.0335,VALID,0,VALID,18.2445,VALID,125,VALID,0.71898,
2003-01-02, 01:14:00,VALID,919.478,VALID,0,VALID,84.9216,VALID,0,VALID,18.2581,VALID,129,VALID,0.8634,
2003-01-02, 01:15:00,VALID,919.463,VALID,0,VALID,84.8173,VALID,0,VALID,18.268,VALID,127,VALID,0.849392,
2003-01-02, 01:16:00,VALID,919.461,VALID,0,VALID,84.9673,VALID,0,VALID,18.2514,VALID,120,VALID,0.846652,
2003-01-02, 01:17:00,VALID,919.451,VALID,0,VALID,85.0411,VALID,0.0169808,VALID,18.1961,VALID,119,VALID,0.991951,
2003-01-02, 01:18:00,VALID,919.442,VALID,0,VALID,85.0424,VALID,0,VALID,18.1679,VALID,116,VALID,1.03146,
2003-01-02, 01:19:00,VALID,919.415,VALID,0,VALID,85.153,VALID,0.0169808,VALID,18.1418,VALID,121,VALID,1.05813,
2003-01-02, 01:20:00,VALID,919.393,VALID,0,VALID,85.2471,VALID,0,VALID,18.1197,VALID,130,VALID,1.1108,
2003-01-02, 01:21:00,VALID,919.374,VALID,0,VALID,85.3692,VALID,0,VALID,18.0936,VALID,126,VALID,1.26584,
2003-01-02, 01:22:00,VALID,919.353,VALID,0,VALID,85.5294,VALID,0,VALID,18.0742,VALID,128,VALID,1.17902,
2003-01-02, 01:23:00,VALID,919.335,VALID,0,VALID,85.6286,VALID,0,VALID,18.0449,VALID,126,VALID,1.09967,
2003-01-02, 01:24:00,VALID,919.307,VALID,0,VALID,85.6438,VALID,0.0339617,VALID,18.0516,VALID,127,VALID,1.27956,
2003-01-02, 01:25:00,VALID,919.289,VALID,0,VALID,85.579,VALID,0,VALID,18.0548,VALID,128,VALID,1.14063,
2003-01-02, 01:26:00,VALID,919.282,VALID,0,VALID,85.6756,VALID,0.0339617,VALID,18.0613,VALID,121,VALID,0.91643,
2003-01-02, 01:27:00,VALID,919.262,VALID,0,VALID,85.8028,VALID,0,VALID,18.0385,VALID,123,VALID,1.05469,
2003-01-02, 01:28:00,VALID,919.251,VALID,0,VALID,85.9261,VALID,0,VALID,18.029,VALID,122,VALID,1.40179,
2003-01-02, 01:29:00,VALID,919.227,VALID,0,VALID,85.387,VALID,0,VALID,18.0422,VALID,113,VALID,1.10701,
2003-01-02, 01:30:00,VALID,919.204,VALID,0,VALID,85.345,VALID,0,VALID,18.074,VALID,114,VALID,1.03041,
2003-01-02, 01:31:00,VALID,919.192,VALID,0,VALID,85.0258,VALID,-0.0169808,VALID,18.0968,VALID,114,VALID,1.42624,
2003-01-02, 01:32:00,VALID,919.175,VALID,0,VALID,84.6647,VALID,-0.0169808,VALID,18.1358,VALID,107,VALID,1.23248,
2003-01-02, 01:33:00,VALID,919.176,VALID,0,VALID,84.4841,VALID,0,VALID,18.1741,VALID,116,VALID,1.15516,
2003-01-02, 01:34:00,VALID,919.166,VALID,0,VALID,84.4587,VALID,0.0169808,VALID,18.197,VALID,120,VALID,1.15089,
2003-01-02, 01:35:00,VALID,919.157,VALID,0,VALID,84.5261,VALID,0,VALID,18.2131,VALID,114,VALID,1.3035,
2003-01-02, 01:36:00,VALID,919.154,VALID,0,VALID,84.7308,VALID,0.0169808,VALID,18.1905,VALID,90,VALID,0.896959,
2003-01-02, 01:37:00,VALID,919.137,VALID,0,VALID,84.7766,VALID,0,VALID,18.107,VALID,52,VALID,0.688879,
2003-01-02, 01:38:00,VALID,919.114,VALID,0,VALID,85.8168,VALID,0,VALID,17.8901,VALID,44,VALID,0.652699,
2003-01-02, 01:39:00,VALID,919.101,VALID,0,VALID,86.6344,VALID,0,VALID,17.7353,VALID,43,VALID,0.708767,
2003-01-02, 01:40:00,VALID,919.081,VALID,0,VALID,87.5449,VALID,0,VALID,17.5833,VALID,55,VALID,0.647768,
2003-01-02, 01:41:00,VALID,919.06,VALID,0,VALID,88.0726,VALID,0,VALID,17.5154,VALID,59,VALID,0.738873,
2003-01-02, 01:42:00,VALID,919.022,VALID,0,VALID,88.388,VALID,0.0169808,VALID,17.4638,VALID,60,VALID,0.805743,
2003-01-02, 01:43:00,VALID,919.004,VALID,0,VALID,88.627,VALID,0,VALID,17.4702,VALID,80,VALID,0.953814,
2003-01-02, 01:44:00,VALID,918.988,VALID,0,VALID,88.3485,VALID,0.0169808,VALID,17.5157,VALID,77,VALID,0.617188,
2003-01-02, 01:45:00,VALID,918.967,VALID,0,VALID,88.257,VALID,-0.0169808,VALID,17.5544,VALID,106,VALID,0.622179,
2003-01-02, 01:46:00,VALID,918.963,VALID,0,VALID,88.0192,VALID,0,VALID,17.5996,VALID,109,VALID,0.614286,
2003-01-02, 01:47:00,VALID,918.933,VALID,0,VALID,87.6441,VALID,0,VALID,17.6707,VALID,115,VALID,0.801136,
2003-01-02, 01:48:00,VALID,918.911,VALID,0,VALID,87.152,VALID,0.0169808,VALID,17.7609,VALID,112,VALID,0.947002,
2003-01-02, 01:49:00,VALID,918.866,VALID,0,VALID,86.6713,VALID,0,VALID,17.8707,VALID,122,VALID,0.899127,
2003-01-02, 01:50:00,VALID,918.853,VALID,0,VALID,86.3038,VALID,0,VALID,17.9517,VALID,114,VALID,0.732955,
2003-01-02, 01:51:00,VALID,918.831,VALID,0,VALID,86.0991,VALID,0,VALID,18.0165,VALID,122,VALID,0.889974,
2003-01-02, 01:52:00,VALID,918.824,VALID,0,VALID,85.8931,VALID,0,VALID,18.0484,VALID,138,VALID,1.225,
2003-01-02, 01:53:00,VALID,918.83,VALID,0,VALID,85.6693,VALID,-0.0169808,VALID,18.0869,VALID,129,VALID,0.950994,
2003-01-02, 01:54:00,VALID,918.819,VALID,0,VALID,85.4773,VALID,-0.0509425,VALID,18.1261,VALID,129,VALID,0.936867,
2003-01-02, 01:55:00,VALID,918.826,VALID,0,VALID,85.3717,VALID,-0.0169808,VALID,18.1421,VALID,130,VALID,0.581112,
2003-01-02, 01:56:00,VALID,918.833,VALID,0,VALID,85.2878,VALID,-0.0509425,VALID,18.152,VALID,134,VALID,0.705256,
2003-01-02, 01:57:00,VALID,918.855,VALID,0,VALID,85.181,VALID,-0.0339617,VALID,18.1649,VALID,145,VALID,0.84592,
2003-01-02, 01:58:00,VALID,918.877,VALID,0,VALID,85.1237,VALID,-0.0169808,VALID,18.1875,VALID,126,VALID,0.51808,
2003-01-02, 01:59:00,VALID,918.885,VALID,0,VALID,85.0932,VALID,-0.0679233,VALID,18.2002,VALID,118,VALID,0.643466,
2003-01-02, 02:00:00,VALID,918.912,VALID,0,VALID,85.0004,VALID,-0.0509425,VALID,18.2228,VALID,106,VALID,0.546242,
2003-01-02, 02:01:00,VALID,918.909,VALID,0,VALID,84.9445,VALID,-0.0169808,VALID,18.2461,VALID,84,VALID,0.643382,
2003-01-02, 02:02:00,VALID,918.916,VALID,0,VALID,85.1237,VALID,0,VALID,18.2002,VALID,75,VALID,0.820549,
2003-01-02, 02:03:00,VALID,918.905,VALID,0,VALID,85.4493,VALID,-0.0339617,VALID,18.1649,VALID,79,VALID,0.910373,
2003-01-02, 02:04:00,VALID,918.917,VALID,0,VALID,85.6985,VALID,-0.0169808,VALID,18.1458,VALID,89,VALID,1.11897,
2003-01-02, 02:05:00,VALID,918.905,VALID,0,VALID,85.7786,VALID,-0.0509425,VALID,18.1264,VALID,76,VALID,0.930871,
2003-01-02, 02:06:00,VALID,918.899,VALID,0,VALID,86.1423,VALID,-0.0509425,VALID,18.0613,VALID,92,VALID,0.847551,
2003-01-02, 02:07:00,VALID,918.886,VALID,0,VALID,86.1029,VALID,-0.0339617,VALID,17.9937,VALID,81,VALID,0.620634,
2003-01-02, 02:08:00,VALID,918.888,VALID,0,VALID,85.7875,VALID,-0.0169808,VALID,17.826,VALID,86,VALID,0.522964,
2003-01-02, 02:09:00,VALID,918.886,VALID,0,VALID,86.9879,VALID,-0.0169808,VALID,17.6123,VALID,65,VALID,0.669054,
2003-01-02, 02:10:00,VALID,918.892,VALID,0,VALID,87.8628,VALID,0,VALID,17.3475,VALID,65,VALID,0.728348,
2003-01-02, 02:11:00,VALID,918.896,VALID,0,VALID,89.9228,VALID,-0.0339617,VALID,17.1895,VALID,89,VALID,0.848248,
2003-01-02, 02:12:00,VALID,918.91,VALID,0,VALID,90.3793,VALID,-0.0339617,VALID,17.1699,VALID,94,VALID,0.815456,
2003-01-02, 02:13:00,VALID,918.922,VALID,0,VALID,89.8757,VALID,-0.0169808,VALID,17.2093,VALID,82,VALID,0.557904,
2003-01-02, 02:14:00,VALID,918.941,VALID,0,VALID,89.6736,VALID,-0.0169808,VALID,17.1669,VALID,76,VALID,0.461648,
2003-01-02, 02:15:00,VALID,918.933,VALID,0,VALID,90.4085,VALID,0,VALID,17.1309,VALID,76,VALID,0.429905,
2003-01-02, 02:16:00,VALID,918.939,VALID,0,VALID,90.6997,VALID,-0.0169808,VALID,17.1113,VALID,83,VALID,0.519196,
2003-01-02, 02:17:00,VALID,918.934,VALID,0,VALID,90.6781,VALID,-0.0169808,VALID,17.1216,VALID,90,VALID,0.468987,
2003-01-02, 02:18:00,VALID,918.932,VALID,0,VALID,90.5917,VALID,0,VALID,17.1313,VALID,90,VALID,0.487542,
2003-01-02, 02:19:00,VALID,918.939,VALID,0,VALID,90.6247,VALID,-0.0169808,VALID,17.1216,VALID,93,VALID,0.524357,
2003-01-02, 02:20:00,VALID,918.96,VALID,0,VALID,90.7849,VALID,-0.0339617,VALID,17.1158,VALID,112,VALID,0.699574,
2003-01-02, 02:21:00,VALID,918.988,VALID,0,VALID,90.7264,VALID,-0.0169808,VALID,17.0993,VALID,134,VALID,0.685764,
2003-01-02, 02:22:00,VALID,919.015,VALID,0,VALID,90.7074,VALID,0,VALID,17.0769,VALID,144,VALID,0.697768,
2003-01-02, 02:23:00,VALID,919.037,VALID,0,VALID,90.771,VALID,-0.0679233,VALID,17.0351,VALID,141,VALID,0.6875,
2003-01-02, 02:24:00,VALID,919.048,VALID,0,VALID,91.1613,VALID,-0.0339617,VALID,16.9867,VALID,149,VALID,0.831081,
2003-01-02, 02:25:00,VALID,919.037,VALID,0,VALID,91.4551,VALID,-0.0679233,VALID,16.9513,VALID,153,VALID,0.941866,
2003-01-02, 02:26:00,VALID,919.023,VALID,0,VALID,91.6178,VALID,-0.0849042,VALID,16.9087,VALID,149,VALID,1.01657,
2003-01-02, 02:27:00,VALID,919.016,VALID,0,VALID,91.6471,VALID,-0.0679233,VALID,16.8863,VALID,153,VALID,1.18186,
2003-01-02, 02:28:00,VALID,918.997,VALID,0,VALID,91.6687,VALID,-0.0679233,VALID,16.8962,VALID,156,VALID,0.996429,
2003-01-02, 02:29:00,VALID,918.983,VALID,0,VALID,91.6318,VALID,-0.0679233,VALID,16.9154,VALID,144,VALID,1.07931,
2003-01-02, 02:30:00,VALID,918.978,VALID,0,VALID,91.6776,VALID,-0.0169808,VALID,16.9546,VALID,147,VALID,1.07791,
2003-01-02, 02:31:00,VALID,918.963,VALID,0,VALID,91.5759,VALID,-0.0339617,VALID,17.0065,VALID,151,VALID,0.962086,
2003-01-02, 02:32:00,VALID,918.946,VALID,0,VALID,91.2516,VALID,-0.0509425,VALID,17.0381,VALID,155,VALID,0.909328,
2003-01-02, 02:33:00,VALID,918.928,VALID,0,VALID,90.8244,VALID,-0.0169808,VALID,17.0736,VALID,152,VALID,0.838542,
2003-01-02, 02:34:00,VALID,918.939,VALID,0,VALID,90.462,VALID,-0.0339617,VALID,17.1061,VALID,153,VALID,0.628125,
2003-01-02, 02:35:00,VALID,918.922,VALID,0,VALID,90.3068,VALID,-0.0679233,VALID,17.116,VALID,153,VALID,0.708333,
2003-01-02, 02:36:00,VALID,918.93,VALID,0,VALID,90.2013,VALID,-0.0509425,VALID,17.1193,VALID,151,VALID,0.630279,
2003-01-02, 02:37:00,VALID,918.934,VALID,0,VALID,90.1441,VALID,-0.0679233,VALID,17.09,VALID,143,VALID,0.723575,
2003-01-02, 02:38:00,VALID,918.959,VALID,0,VALID,90.1746,VALID,-0.0339617,VALID,17.0872,VALID,129,VALID,0.574811,
2003-01-02, 02:39:00,VALID,918.983,VALID,0,VALID,90.1555,VALID,-0.0679233,VALID,17.0192,VALID,101,VALID,0.741319,
2003-01-02, 02:40:00,VALID,918.992,VALID,0,VALID,90.7125,VALID,-0.0509425,VALID,16.8865,VALID,78,VALID,1.22232,
2003-01-02, 02:41:00,VALID,919,VALID,0,VALID,91.6369,VALID,-0.0169808,VALID,16.7834,VALID,80,VALID,1.5232,
2003-01-02, 02:42:00,VALID,919.002,VALID,0,VALID,91.8633,VALID,-0.0339617,VALID,16.7382,VALID,81,VALID,1.46157,
2003-01-02, 02:43:00,VALID,918.976,VALID,0,VALID,91.6929,VALID,-0.0509425,VALID,16.7735,VALID,84,VALID,1.53401,
2003-01-02, 02:44:00,VALID,918.947,VALID,0,VALID,90.9274,VALID,-0.0509425,VALID,16.8741,VALID,88,VALID,1.52865,
2003-01-02, 02:45:00,VALID,918.929,VALID,0,VALID,90.1517,VALID,-0.0849042,VALID,16.9673,VALID,90,VALID,1.33095,
2003-01-02, 02:46:00,VALID,918.899,VALID,0,VALID,89.2361,VALID,-0.0339617,VALID,17.0065,VALID,84,VALID,0.85692,
2003-01-02, 02:47:00,VALID,918.876,VALID,0,VALID,88.9475,VALID,-0.0339617,VALID,16.8999,VALID,77,VALID,0.109375,
2003-01-02, 02:48:00,VALID,918.874,VALID,0,VALID,90.2013,VALID,-0.0679233,VALID,16.764,VALID,77,VALID,0.0443412,
2003-01-02, 02:49:00,VALID,918.867,VALID,0,VALID,90.982,VALID,-0.0339617,VALID,16.7115,VALID,90,VALID,0.137408,
2003-01-02, 02:50:00,VALID,918.85,VALID,0,VALID,90.9986,VALID,-0.0339617,VALID,16.6928,VALID,111,VALID,0.0875947,
2003-01-02, 02:51:00,VALID,918.83,VALID,0,VALID,91.1906,VALID,-0.101885,VALID,16.6545,VALID,111,VALID,0.404731,
2003-01-02, 02:52:00,VALID,918.808,VALID,0,VALID,91.5543,VALID,-0.0339617,VALID,16.603,VALID,120,VALID,0.354911,
2003-01-02, 02:53:00,VALID,918.81,VALID,0,VALID,91.6331,VALID,-0.0169808,VALID,16.5414,VALID,131,VALID,0.158144,
2003-01-02, 02:54:00,VALID,918.801,VALID,0,VALID,92.1748,VALID,0,VALID,16.4896,VALID,138,VALID,0.402872,
2003-01-02, 02:55:00,VALID,918.813,VALID,0,VALID,92.4749,VALID,0,VALID,16.4769,VALID,138,VALID,0.190257,
2003-01-02, 02:56:00,VALID,918.832,VALID,0,VALID,92.569,VALID,0,VALID,16.4026,VALID,134,VALID,0.311316,
2003-01-02, 02:57:00,VALID,918.845,VALID,0,VALID,93.1578,VALID,0,VALID,16.341,VALID,105,VALID,0.553385,
2003-01-02, 02:58:00,VALID,918.854,VALID,0,VALID,93.9754,VALID,0,VALID,16.2894,VALID,106,VALID,0.873214,
2003-01-02, 02:59:00,VALID,918.861,VALID,0,VALID,94.2844,VALID,-0.0339617,VALID,16.3122,VALID,102,VALID,0.955729,
2003-01-02, 03:00:00,VALID,918.867,VALID,0,VALID,94.0898,VALID,-0.0339617,VALID,16.3572,VALID,101,VALID,0.879012,
2003-01-02, 03:01:00,VALID,918.865,VALID,0,VALID,93.6422,VALID,-0.0169808,VALID,16.4252,VALID,101,VALID,0.819393,
2003-01-02, 03:02:00,VALID,918.854,VALID,0,VALID,93.1069,VALID,-0.0169808,VALID,16.4706,VALID,100,VALID,0.841856,
2003-01-02, 03:03:00,VALID,918.842,VALID,0,VALID,92.3579,VALID,-0.0169808,VALID,16.5479,VALID,99,VALID,0.897352,
2003-01-02, 03:04:00,VALID,918.813,VALID,0,VALID,91.7971,VALID,0,VALID,16.5834,VALID,88,VALID,1.04174,
2003-01-02, 03:05:00,VALID,918.788,VALID,0,VALID,91.5568,VALID,-0.0169808,VALID,16.5768,VALID,83,VALID,1.07244,
2003-01-02, 03:06:00,VALID,918.764,VALID,0,VALID,91.6725,VALID,-0.0169808,VALID,16.5382,VALID,93,VALID,1.01605,
2003-01-02, 03:07:00,VALID,918.752,VALID,0,VALID,91.6115,VALID,0,VALID,16.555,VALID,104,VALID,1.04297,
2003-01-02, 03:08:00,VALID,918.727,VALID,0,VALID,90.6412,VALID,-0.0169808,VALID,16.5996,VALID,112,VALID,1.25616,
2003-01-02, 03:09:00,VALID,918.706,VALID,0,VALID,90.0207,VALID,0,VALID,16.7197,VALID,110,VALID,0.950521,
2003-01-02, 03:10:00,VALID,918.682,VALID,0,VALID,89.8592,VALID,0,VALID,16.7548,VALID,102,VALID,0.919866,
2003-01-02, 03:11:00,VALID,918.664,VALID,0,VALID,89.9609,VALID,0,VALID,16.7229,VALID,101,VALID,0.805634,
2003-01-02, 03:12:00,VALID,918.646,VALID,0,VALID,90.0347,VALID,-0.0169808,VALID,16.6773,VALID,114,VALID,0.667441,
2003-01-02, 03:13:00,VALID,918.61,VALID,0,VALID,90.0436,VALID,0,VALID,16.6099,VALID,114,VALID,0.933134,
2003-01-02, 03:14:00,VALID,918.564,VALID,0,VALID,89.4752,VALID,-0.0169808,VALID,16.552,VALID,123,VALID,1.42732,
2003-01-02, 03:15:00,VALID,918.529,VALID,0,VALID,89.1357,VALID,-0.0509425,VALID,16.5582,VALID,140,VALID,1.00217,
2003-01-02, 03:16:00,VALID,918.516,VALID,0,VALID,89.3404,VALID,-0.0339617,VALID,16.5713,VALID,146,VALID,1.07143,
2003-01-02, 03:17:00,VALID,918.506,VALID,0,VALID,89.7346,VALID,-0.0169808,VALID,16.5513,VALID,150,VALID,1.34257,
2003-01-02, 03:18:00,VALID,918.501,VALID,0,VALID,89.198,VALID,-0.0169808,VALID,16.5356,VALID,150,VALID,1.66744,
2003-01-02, 03:19:00,VALID,918.487,VALID,0,VALID,88.4681,VALID,-0.0169808,VALID,16.5546,VALID,150,VALID,1.48552,
2003-01-02, 03:20:00,VALID,918.489,VALID,0,VALID,88.0141,VALID,-0.0169808,VALID,16.6129,VALID,148,VALID,1.23982,
2003-01-02, 03:21:00,VALID,918.472,VALID,0,VALID,87.6873,VALID,-0.0509425,VALID,16.6809,VALID,144,VALID,1.04036,
2003-01-02, 03:22:00,VALID,918.456,VALID,0,VALID,87.8882,VALID,0,VALID,16.7326,VALID,154,VALID,1.08058,
2003-01-02, 03:23:00,VALID,918.432,VALID,0,VALID,87.9124,VALID,0,VALID,16.736,VALID,157,VALID,1.09517,
2003-01-02, 03:24:00,VALID,918.427,VALID,0,VALID,87.7725,VALID,0,VALID,16.7294,VALID,153,VALID,1.19426,
2003-01-02, 03:25:00,VALID,918.421,VALID,0,VALID,87.8577,VALID,0,VALID,16.752,VALID,148,VALID,1.37293,
2003-01-02, 03:26:00,VALID,918.41,VALID,0,VALID,88.051,VALID,0,VALID,16.7742,VALID,144,VALID,1.21425,
2003-01-02, 03:27:00,VALID,918.418,VALID,0,VALID,88.1476,VALID,-0.0169808,VALID,16.7742,VALID,136,VALID,1.03038,
2003-01-02, 03:28:00,VALID,918.441,VALID,0,VALID,88.1858,VALID,-0.0169808,VALID,16.7841,VALID,127,VALID,0.752679,
2003-01-02, 03:29:00,VALID,918.463,VALID,0,VALID,88.3333,VALID,-0.0169808,VALID,16.7905,VALID,119,VALID,0.833807,
2003-01-02, 03:30:00,VALID,918.496,VALID,0,VALID,88.4134,VALID,-0.0339617,VALID,16.8196,VALID,114,VALID,0.991554,
2003-01-02, 03:31:00,VALID,918.507,VALID,0,VALID,88.3676,VALID,-0.0169808,VALID,16.8224,VALID,102,VALID,1.09214,
2003-01-02, 03:32:00,VALID,918.537,VALID,0,VALID,88.0968,VALID,-0.0339617,VALID,16.8392,VALID,110,VALID,1.44673,